Year,Month,Day,Hour,Minute,Value (Times are PST for temperature in C)
2018,08,05,00,00,17.00
2018,08,05,00,01,17.00
2018,08,05,00,02,17.00
2018,08,05,00,03,16.90
2018,08,05,00,04,16.90
2018,08,05,00,05,16.90
2018,08,05,00,06,16.90
2018,08,05,00,07,16.90
2018,08,05,00,08,16.90
2018,08,05,00,09,16.90
2018,08,05,00,10,16.90
2018,08,05,00,11,17.00
2018,08,05,00,12,17.00
2018,08,05,00,13,17.10
2018,08,05,00,14,17.00
2018,08,05,00,15,17.00
2018,08,05,00,16,17.10
2018,08,05,00,17,17.10
2018,08,05,00,18,17.00
2018,08,05,00,19,17.00
2018,08,05,00,20,17.00
2018,08,05,00,21,17.00
2018,08,05,00,22,17.00
2018,08,05,00,23,16.90
2018,08,05,00,24,16.90
2018,08,05,00,25,16.90
2018,08,05,00,26,16.90
2018,08,05,00,27,17.00
2018,08,05,00,28,17.00
2018,08,05,00,29,17.00
2018,08,05,00,30,17.00
2018,08,05,00,31,17.00
2018,08,05,00,32,17.00
2018,08,05,00,33,17.10
2018,08,05,00,34,17.10
2018,08,05,00,35,17.20
2018,08,05,00,36,17.20
2018,08,05,00,37,17.30
2018,08,05,00,38,17.20
2018,08,05,00,39,17.20
2018,08,05,00,40,17.20
2018,08,05,00,41,17.20
2018,08,05,00,42,17.20
2018,08,05,00,43,17.10
2018,08,05,00,44,17.10
2018,08,05,00,45,17.20
2018,08,05,00,46,17.20
2018,08,05,00,47,17.20
2018,08,05,00,48,17.30
2018,08,05,00,49,17.30
2018,08,05,00,50,17.30
2018,08,05,00,51,17.30
2018,08,05,00,52,17.30
2018,08,05,00,53,17.30
2018,08,05,00,54,17.20
2018,08,05,00,55,17.20
2018,08,05,00,56,17.10
2018,08,05,00,57,17.00
2018,08,05,00,58,17.00
2018,08,05,00,59,17.00
2018,08,05,01,00,16.90
2018,08,05,01,01,16.90
2018,08,05,01,02,16.90
2018,08,05,01,03,16.90
2018,08,05,01,04,16.80
2018,08,05,01,05,16.80
2018,08,05,01,06,16.70
2018,08,05,01,07,16.70
2018,08,05,01,08,16.60
2018,08,05,01,09,16.60
2018,08,05,01,10,16.50
2018,08,05,01,11,16.50
2018,08,05,01,12,16.40
2018,08,05,01,13,16.40
2018,08,05,01,14,16.40
2018,08,05,01,15,16.30
2018,08,05,01,16,16.30
2018,08,05,01,17,16.30
2018,08,05,01,18,16.20
2018,08,05,01,19,16.20
2018,08,05,01,20,16.20
2018,08,05,01,21,16.20
2018,08,05,01,22,16.10
2018,08,05,01,23,16.10
2018,08,05,01,24,16.10
2018,08,05,01,25,16.10
2018,08,05,01,26,16.00
2018,08,05,01,27,16.00
2018,08,05,01,28,16.00
2018,08,05,01,29,16.00
2018,08,05,01,30,16.00
2018,08,05,01,31,16.00
2018,08,05,01,32,16.00
2018,08,05,01,33,16.00
2018,08,05,01,34,16.00
2018,08,05,01,35,16.10
2018,08,05,01,36,16.10
2018,08,05,01,37,16.10
2018,08,05,01,38,16.10
2018,08,05,01,39,16.10
2018,08,05,01,40,16.10
2018,08,05,01,41,16.10
2018,08,05,01,42,16.10
2018,08,05,01,43,16.10
2018,08,05,01,44,16.10
2018,08,05,01,45,16.10
2018,08,05,01,46,16.10
2018,08,05,01,47,16.10
2018,08,05,01,48,16.10
2018,08,05,01,49,16.10
2018,08,05,01,50,16.10
2018,08,05,01,51,16.00
2018,08,05,01,52,16.00
2018,08,05,01,53,16.00
2018,08,05,01,54,16.00
2018,08,05,01,55,16.00
2018,08,05,01,56,16.00
2018,08,05,01,57,16.00
2018,08,05,01,58,16.00
2018,08,05,01,59,16.00
2018,08,05,02,00,16.00
2018,08,05,02,01,16.00
2018,08,05,02,02,15.90
2018,08,05,02,03,15.90
2018,08,05,02,04,15.90
2018,08,05,02,05,15.90
2018,08,05,02,06,15.90
2018,08,05,02,07,15.90
2018,08,05,02,08,15.90
2018,08,05,02,09,15.80
2018,08,05,02,10,15.80
2018,08,05,02,11,15.80
2018,08,05,02,12,15.80
2018,08,05,02,13,15.80
2018,08,05,02,14,15.80
2018,08,05,02,15,15.80
2018,08,05,02,16,15.80
2018,08,05,02,17,15.80
2018,08,05,02,18,15.80
2018,08,05,02,19,15.80
2018,08,05,02,20,15.70
2018,08,05,02,21,15.70
2018,08,05,02,22,15.80
2018,08,05,02,23,15.80
2018,08,05,02,24,15.80
2018,08,05,02,25,15.70
2018,08,05,02,26,15.70
2018,08,05,02,27,15.70
2018,08,05,02,28,15.70
2018,08,05,02,29,15.70
2018,08,05,02,30,15.70
2018,08,05,02,31,15.70
2018,08,05,02,32,15.70
2018,08,05,02,33,15.70
2018,08,05,02,34,15.70
2018,08,05,02,35,15.80
2018,08,05,02,36,15.80
2018,08,05,02,37,15.80
2018,08,05,02,38,15.80
2018,08,05,02,39,15.70
2018,08,05,02,40,15.70
2018,08,05,02,41,15.70
2018,08,05,02,42,15.70
2018,08,05,02,43,15.70
2018,08,05,02,44,15.70
2018,08,05,02,45,15.70
2018,08,05,02,46,15.60
2018,08,05,02,47,15.60
2018,08,05,02,48,15.60
2018,08,05,02,49,15.60
2018,08,05,02,50,15.60
2018,08,05,02,51,15.60
2018,08,05,02,52,15.60
2018,08,05,02,53,15.60
2018,08,05,02,54,15.70
2018,08,05,02,55,15.70
2018,08,05,02,56,15.70
2018,08,05,02,57,15.70
2018,08,05,02,58,15.70
2018,08,05,02,59,15.70
2018,08,05,03,00,15.70
2018,08,05,03,01,15.70
2018,08,05,03,02,15.70
2018,08,05,03,03,15.70
2018,08,05,03,04,15.70
2018,08,05,03,05,15.70
2018,08,05,03,06,15.70
2018,08,05,03,07,15.70
2018,08,05,03,08,15.70
2018,08,05,03,09,15.70
2018,08,05,03,10,15.60
2018,08,05,03,11,15.60
2018,08,05,03,12,15.60
2018,08,05,03,13,15.60
2018,08,05,03,14,15.60
2018,08,05,03,15,15.60
2018,08,05,03,16,15.50
2018,08,05,03,17,15.50
2018,08,05,03,18,15.50
2018,08,05,03,19,15.50
2018,08,05,03,20,15.50
2018,08,05,03,21,15.40
2018,08,05,03,22,15.40
2018,08,05,03,23,15.40
2018,08,05,03,24,15.40
2018,08,05,03,25,15.30
2018,08,05,03,26,15.30
2018,08,05,03,27,15.30
2018,08,05,03,28,15.30
2018,08,05,03,29,15.30
2018,08,05,03,30,15.20
2018,08,05,03,31,15.20
2018,08,05,03,32,15.20
2018,08,05,03,33,15.20
2018,08,05,03,34,15.10
2018,08,05,03,35,15.10
2018,08,05,03,36,15.10
2018,08,05,03,37,15.10
2018,08,05,03,38,15.10
2018,08,05,03,39,15.10
2018,08,05,03,40,15.10
2018,08,05,03,41,15.10
2018,08,05,03,42,15.00
2018,08,05,03,43,15.00
2018,08,05,03,44,15.00
2018,08,05,03,45,15.00
2018,08,05,03,46,15.00
2018,08,05,03,47,15.00
2018,08,05,03,48,14.90
2018,08,05,03,49,15.00
2018,08,05,03,50,15.00
2018,08,05,03,51,15.00
2018,08,05,03,52,15.00
2018,08,05,03,53,15.00
2018,08,05,03,54,15.00
2018,08,05,03,55,15.00
2018,08,05,03,56,15.00
2018,08,05,03,57,15.00
2018,08,05,03,58,15.00
2018,08,05,03,59,15.00
2018,08,05,04,00,15.00
2018,08,05,04,01,15.00
2018,08,05,04,02,15.00
2018,08,05,04,03,15.00
2018,08,05,04,04,15.00
2018,08,05,04,05,15.00
2018,08,05,04,06,14.90
2018,08,05,04,07,14.90
2018,08,05,04,08,14.90
2018,08,05,04,09,14.90
2018,08,05,04,10,14.90
2018,08,05,04,11,14.90
2018,08,05,04,12,14.90
2018,08,05,04,13,14.90
2018,08,05,04,14,14.90
2018,08,05,04,15,14.90
2018,08,05,04,16,14.90
2018,08,05,04,17,14.90
2018,08,05,04,18,14.90
2018,08,05,04,19,14.90
2018,08,05,04,20,14.90
2018,08,05,04,21,14.90
2018,08,05,04,22,14.90
2018,08,05,04,23,14.90
2018,08,05,04,24,14.90
2018,08,05,04,25,14.90
2018,08,05,04,26,14.90
2018,08,05,04,27,14.90
2018,08,05,04,28,14.80
2018,08,05,04,29,14.80
2018,08,05,04,30,14.80
2018,08,05,04,31,14.80
2018,08,05,04,32,14.80
2018,08,05,04,33,14.80
2018,08,05,04,34,14.80
2018,08,05,04,35,14.80
2018,08,05,04,36,14.80
2018,08,05,04,37,14.80
2018,08,05,04,38,14.80
2018,08,05,04,39,14.70
2018,08,05,04,40,14.70
2018,08,05,04,41,14.70
2018,08,05,04,42,14.70
2018,08,05,04,43,14.70
2018,08,05,04,44,14.60
2018,08,05,04,45,14.60
2018,08,05,04,46,14.60
2018,08,05,04,47,14.60
2018,08,05,04,48,14.50
2018,08,05,04,49,14.50
2018,08,05,04,50,14.50
2018,08,05,04,51,14.50
2018,08,05,04,52,14.50
2018,08,05,04,53,14.50
2018,08,05,04,54,14.50
2018,08,05,04,55,14.50
2018,08,05,04,56,14.50
2018,08,05,04,57,14.40
2018,08,05,04,58,14.40
2018,08,05,04,59,14.40
2018,08,05,05,00,14.40
2018,08,05,05,01,14.50
2018,08,05,05,02,14.50
2018,08,05,05,03,14.50
2018,08,05,05,04,14.50
2018,08,05,05,05,14.50
2018,08,05,05,06,14.40
2018,08,05,05,07,14.40
2018,08,05,05,08,14.30
2018,08,05,05,09,14.30
2018,08,05,05,10,14.30
2018,08,05,05,11,14.20
2018,08,05,05,12,14.10
2018,08,05,05,13,14.00
2018,08,05,05,14,14.00
2018,08,05,05,15,13.90
2018,08,05,05,16,13.90
2018,08,05,05,17,13.80
2018,08,05,05,18,13.80
2018,08,05,05,19,13.80
2018,08,05,05,20,13.80
2018,08,05,05,21,13.70
2018,08,05,05,22,13.70
2018,08,05,05,23,13.70
2018,08,05,05,24,13.70
2018,08,05,05,25,13.70
2018,08,05,05,26,13.70
2018,08,05,05,27,13.70
2018,08,05,05,28,13.70
2018,08,05,05,29,13.70
2018,08,05,05,30,13.70
2018,08,05,05,31,13.70
2018,08,05,05,32,13.60
2018,08,05,05,33,13.60
2018,08,05,05,34,13.60
2018,08,05,05,35,13.60
2018,08,05,05,36,13.60
2018,08,05,05,37,13.60
2018,08,05,05,38,13.60
2018,08,05,05,39,13.60
2018,08,05,05,40,13.60
2018,08,05,05,41,13.60
2018,08,05,05,42,13.60
2018,08,05,05,43,13.60
2018,08,05,05,44,13.60
2018,08,05,05,45,13.60
2018,08,05,05,46,13.60
2018,08,05,05,47,13.60
2018,08,05,05,48,13.60
2018,08,05,05,49,13.60
2018,08,05,05,50,13.60
2018,08,05,05,51,13.60
2018,08,05,05,52,13.60
2018,08,05,05,53,13.60
2018,08,05,05,54,13.60
2018,08,05,05,55,13.60
2018,08,05,05,56,13.60
2018,08,05,05,57,13.60
2018,08,05,05,58,13.60
2018,08,05,05,59,13.60
2018,08,05,06,00,13.60
2018,08,05,06,01,13.60
2018,08,05,06,02,13.60
2018,08,05,06,03,13.60
2018,08,05,06,04,13.60
2018,08,05,06,05,13.60
2018,08,05,06,06,13.60
2018,08,05,06,07,13.60
2018,08,05,06,08,13.50
2018,08,05,06,09,13.60
2018,08,05,06,10,13.50
2018,08,05,06,11,13.50
2018,08,05,06,12,13.60
2018,08,05,06,13,13.50
2018,08,05,06,14,13.60
2018,08,05,06,15,13.60
2018,08,05,06,16,13.60
2018,08,05,06,17,13.60
2018,08,05,06,18,13.60
2018,08,05,06,19,13.60
2018,08,05,06,20,13.50
2018,08,05,06,21,13.50
2018,08,05,06,22,13.50
2018,08,05,06,23,13.50
2018,08,05,06,24,13.50
2018,08,05,06,25,13.50
2018,08,05,06,26,13.50
2018,08,05,06,27,13.50
2018,08,05,06,28,13.50
2018,08,05,06,29,13.40
2018,08,05,06,30,13.50
2018,08,05,06,31,13.50
2018,08,05,06,32,13.50
2018,08,05,06,33,13.60
2018,08,05,06,34,13.60
2018,08,05,06,35,13.70
2018,08,05,06,36,13.70
2018,08,05,06,37,13.70
2018,08,05,06,38,13.70
2018,08,05,06,39,13.80
2018,08,05,06,40,13.80
2018,08,05,06,41,13.80
2018,08,05,06,42,13.80
2018,08,05,06,43,13.80
2018,08,05,06,44,13.80
2018,08,05,06,45,13.80
2018,08,05,06,46,13.80
2018,08,05,06,47,13.90
2018,08,05,06,48,13.90
2018,08,05,06,49,13.90
2018,08,05,06,50,14.00
2018,08,05,06,51,14.00
2018,08,05,06,52,14.10
2018,08,05,06,53,14.10
2018,08,05,06,54,14.10
2018,08,05,06,55,14.10
2018,08,05,06,56,14.20
2018,08,05,06,57,14.20
2018,08,05,06,58,14.30
2018,08,05,06,59,14.40
2018,08,05,07,00,14.50
2018,08,05,07,01,14.60
2018,08,05,07,02,14.70
2018,08,05,07,03,14.80
2018,08,05,07,04,14.80
2018,08,05,07,05,14.90
2018,08,05,07,06,14.90
2018,08,05,07,07,14.90
2018,08,05,07,08,14.90
2018,08,05,07,09,15.00
2018,08,05,07,10,15.00
2018,08,05,07,11,15.10
2018,08,05,07,12,15.20
2018,08,05,07,13,15.20
2018,08,05,07,14,15.30
2018,08,05,07,15,15.40
2018,08,05,07,16,15.50
2018,08,05,07,17,15.60
2018,08,05,07,18,15.70
2018,08,05,07,19,15.80
2018,08,05,07,20,15.80
2018,08,05,07,21,15.90
2018,08,05,07,22,16.00
2018,08,05,07,23,16.10
2018,08,05,07,24,16.20
2018,08,05,07,25,16.40
2018,08,05,07,26,16.50
2018,08,05,07,27,16.60
2018,08,05,07,28,16.70
2018,08,05,07,29,16.80
2018,08,05,07,30,16.80
2018,08,05,07,31,16.80
2018,08,05,07,32,16.80
2018,08,05,07,33,16.80
2018,08,05,07,34,16.80
2018,08,05,07,35,16.70
2018,08,05,07,36,16.60
2018,08,05,07,37,16.60
2018,08,05,07,38,16.60
2018,08,05,07,39,16.50
2018,08,05,07,40,16.40
2018,08,05,07,41,16.30
2018,08,05,07,42,16.30
2018,08,05,07,43,16.30
2018,08,05,07,44,16.20
2018,08,05,07,45,16.20
2018,08,05,07,46,16.10
2018,08,05,07,47,16.10
2018,08,05,07,48,16.10
2018,08,05,07,49,16.00
2018,08,05,07,50,15.90
2018,08,05,07,51,15.90
2018,08,05,07,52,15.90
2018,08,05,07,53,15.90
2018,08,05,07,54,16.00
2018,08,05,07,55,16.00
2018,08,05,07,56,16.00
2018,08,05,07,57,16.10
2018,08,05,07,58,16.10
2018,08,05,07,59,16.10
2018,08,05,08,00,16.20
2018,08,05,08,01,16.20
2018,08,05,08,02,16.30
2018,08,05,08,03,16.30
2018,08,05,08,04,16.40
2018,08,05,08,05,16.50
2018,08,05,08,06,16.50
2018,08,05,08,07,16.50
2018,08,05,08,08,16.60
2018,08,05,08,09,16.60
2018,08,05,08,10,16.60
2018,08,05,08,11,16.70
2018,08,05,08,12,16.70
2018,08,05,08,13,16.80
2018,08,05,08,14,16.90
2018,08,05,08,15,17.00
2018,08,05,08,16,17.10
2018,08,05,08,17,17.20
2018,08,05,08,18,17.30
2018,08,05,08,19,17.30
2018,08,05,08,20,17.40
2018,08,05,08,21,17.40
2018,08,05,08,22,17.40
2018,08,05,08,23,17.40
2018,08,05,08,24,17.40
2018,08,05,08,25,17.40
2018,08,05,08,26,17.30
2018,08,05,08,27,17.30
2018,08,05,08,28,17.30
2018,08,05,08,29,17.30
2018,08,05,08,30,17.30
2018,08,05,08,31,17.40
2018,08,05,08,32,17.40
2018,08,05,08,33,17.40
2018,08,05,08,34,17.40
2018,08,05,08,35,17.30
2018,08,05,08,36,17.30
2018,08,05,08,37,17.20
2018,08,05,08,38,17.10
2018,08,05,08,39,17.10
2018,08,05,08,40,17.20
2018,08,05,08,41,17.20
2018,08,05,08,42,17.30
2018,08,05,08,43,17.40
2018,08,05,08,44,17.50
2018,08,05,08,45,17.60
2018,08,05,08,46,17.60
2018,08,05,08,47,17.60
2018,08,05,08,48,17.50
2018,08,05,08,49,17.50
2018,08,05,08,50,17.50
2018,08,05,08,51,17.60
2018,08,05,08,52,17.80
2018,08,05,08,53,17.80
2018,08,05,08,54,17.90
2018,08,05,08,55,18.00
2018,08,05,08,56,18.00
2018,08,05,08,57,18.10
2018,08,05,08,58,18.20
2018,08,05,08,59,18.30
2018,08,05,09,00,18.30
2018,08,05,09,01,18.30
2018,08,05,09,02,18.20
2018,08,05,09,03,18.30
2018,08,05,09,04,18.30
2018,08,05,09,05,18.30
2018,08,05,09,06,18.20
2018,08,05,09,07,18.20
2018,08,05,09,08,18.00
2018,08,05,09,09,17.70
2018,08,05,09,10,17.60
2018,08,05,09,11,17.40
2018,08,05,09,12,17.30
2018,08,05,09,13,17.30
2018,08,05,09,14,17.30
2018,08,05,09,15,17.30
2018,08,05,09,16,17.30
2018,08,05,09,17,17.30
2018,08,05,09,18,17.30
2018,08,05,09,19,17.40
2018,08,05,09,20,17.50
2018,08,05,09,21,17.60
2018,08,05,09,22,17.70
2018,08,05,09,23,17.80
2018,08,05,09,24,18.00
2018,08,05,09,25,18.10
2018,08,05,09,26,18.20
2018,08,05,09,27,18.40
2018,08,05,09,28,18.50
2018,08,05,09,29,18.70
2018,08,05,09,30,18.80
2018,08,05,09,31,18.90
2018,08,05,09,32,19.00
2018,08,05,09,33,19.00
2018,08,05,09,34,19.00
2018,08,05,09,35,19.00
2018,08,05,09,36,19.00
2018,08,05,09,37,19.00
2018,08,05,09,38,19.00
2018,08,05,09,39,19.00
2018,08,05,09,40,18.80
2018,08,05,09,41,18.70
2018,08,05,09,42,18.50
2018,08,05,09,43,18.50
2018,08,05,09,44,18.30
2018,08,05,09,45,18.30
2018,08,05,09,46,18.30
2018,08,05,09,47,18.50
2018,08,05,09,48,18.50
2018,08,05,09,49,18.50
2018,08,05,09,50,18.60
2018,08,05,09,51,18.50
2018,08,05,09,52,18.50
2018,08,05,09,53,18.50
2018,08,05,09,54,18.50
2018,08,05,09,55,18.40
2018,08,05,09,56,18.40
2018,08,05,09,57,18.30
2018,08,05,09,58,18.20
2018,08,05,09,59,18.20
2018,08,05,10,00,18.20
2018,08,05,10,01,18.20
2018,08,05,10,02,18.30
2018,08,05,10,03,18.30
2018,08,05,10,04,18.30
2018,08,05,10,05,18.50
2018,08,05,10,06,18.60
2018,08,05,10,07,18.60
2018,08,05,10,08,18.50
2018,08,05,10,09,18.40
2018,08,05,10,10,18.40
2018,08,05,10,11,18.50
2018,08,05,10,12,18.60
2018,08,05,10,13,18.70
2018,08,05,10,14,18.90
2018,08,05,10,15,19.10
2018,08,05,10,16,19.20
2018,08,05,10,17,19.20
2018,08,05,10,18,19.30
2018,08,05,10,19,19.40
2018,08,05,10,20,19.50
2018,08,05,10,21,19.70
2018,08,05,10,22,19.60
2018,08,05,10,23,19.60
2018,08,05,10,24,19.50
2018,08,05,10,25,19.40
2018,08,05,10,26,19.30
2018,08,05,10,27,19.40
2018,08,05,10,28,19.40
2018,08,05,10,29,19.40
2018,08,05,10,30,19.50
2018,08,05,10,31,19.50
2018,08,05,10,32,19.70
2018,08,05,10,33,19.80
2018,08,05,10,34,19.90
2018,08,05,10,35,20.10
2018,08,05,10,36,20.20
2018,08,05,10,37,20.40
2018,08,05,10,38,20.50
2018,08,05,10,39,20.60
2018,08,05,10,40,20.70
2018,08,05,10,41,20.80
2018,08,05,10,42,20.80
2018,08,05,10,43,20.70
2018,08,05,10,44,20.70
2018,08,05,10,45,20.70
2018,08,05,10,46,20.90
2018,08,05,10,47,21.00
2018,08,05,10,48,21.00
2018,08,05,10,49,21.10
2018,08,05,10,50,21.20
2018,08,05,10,51,21.30
2018,08,05,10,52,21.30
2018,08,05,10,53,21.40
2018,08,05,10,54,21.50
2018,08,05,10,55,21.60
2018,08,05,10,56,21.60
2018,08,05,10,57,21.70
2018,08,05,10,58,21.70
2018,08,05,10,59,21.80
2018,08,05,11,00,21.90
2018,08,05,11,01,22.10
2018,08,05,11,02,22.20
2018,08,05,11,03,22.20
2018,08,05,11,04,22.30
2018,08,05,11,05,22.30
2018,08,05,11,06,22.20
2018,08,05,11,07,21.90
2018,08,05,11,08,21.80
2018,08,05,11,09,21.60
2018,08,05,11,10,21.30
2018,08,05,11,11,21.00
2018,08,05,11,12,20.80
2018,08,05,11,13,20.80
2018,08,05,11,14,20.70
2018,08,05,11,15,20.60
2018,08,05,11,16,20.60
2018,08,05,11,17,20.70
2018,08,05,11,18,20.90
2018,08,05,11,19,21.00
2018,08,05,11,20,21.00
2018,08,05,11,21,21.00
2018,08,05,11,22,20.80
2018,08,05,11,23,20.50
2018,08,05,11,24,20.30
2018,08,05,11,25,20.20
2018,08,05,11,26,20.20
2018,08,05,11,27,20.20
2018,08,05,11,28,20.40
2018,08,05,11,29,20.50
2018,08,05,11,30,20.70
2018,08,05,11,31,20.90
2018,08,05,11,32,21.10
2018,08,05,11,33,21.20
2018,08,05,11,34,21.30
2018,08,05,11,35,21.50
2018,08,05,11,36,21.60
2018,08,05,11,37,21.60
2018,08,05,11,38,21.40
2018,08,05,11,39,21.10
2018,08,05,11,40,20.70
2018,08,05,11,41,20.60
2018,08,05,11,42,20.60
2018,08,05,11,43,20.40
2018,08,05,11,44,20.20
2018,08,05,11,45,20.10
2018,08,05,11,46,20.10
2018,08,05,11,47,20.20
2018,08,05,11,48,20.30
2018,08,05,11,49,20.20
2018,08,05,11,50,20.10
2018,08,05,11,51,20.10
2018,08,05,11,52,20.00
2018,08,05,11,53,19.90
2018,08,05,11,54,19.70
2018,08,05,11,55,19.50
2018,08,05,11,56,19.50
2018,08,05,11,57,19.40
2018,08,05,11,58,19.40
2018,08,05,11,59,19.40
2018,08,05,12,00,19.50
2018,08,05,12,01,19.50
2018,08,05,12,02,19.60
2018,08,05,12,03,19.80
2018,08,05,12,04,20.10
2018,08,05,12,05,20.20
2018,08,05,12,06,20.40
2018,08,05,12,07,20.60
2018,08,05,12,08,20.70
2018,08,05,12,09,20.80
2018,08,05,12,10,20.70
2018,08,05,12,11,20.80
2018,08,05,12,12,20.80
2018,08,05,12,13,20.60
2018,08,05,12,14,20.50
2018,08,05,12,15,20.60
2018,08,05,12,16,20.70
2018,08,05,12,17,20.90
2018,08,05,12,18,21.10
2018,08,05,12,19,21.30
2018,08,05,12,20,21.40
2018,08,05,12,21,21.60
2018,08,05,12,22,21.70
2018,08,05,12,23,21.70
2018,08,05,12,24,21.80
2018,08,05,12,25,21.80
2018,08,05,12,26,21.80
2018,08,05,12,27,21.90
2018,08,05,12,28,22.00
2018,08,05,12,29,22.10
2018,08,05,12,30,22.10
2018,08,05,12,31,21.90
2018,08,05,12,32,21.70
2018,08,05,12,33,21.70
2018,08,05,12,34,21.60
2018,08,05,12,35,21.40
2018,08,05,12,36,21.30
2018,08,05,12,37,21.30
2018,08,05,12,38,21.50
2018,08,05,12,39,21.70
2018,08,05,12,40,21.80
2018,08,05,12,41,21.80
2018,08,05,12,42,21.90
2018,08,05,12,43,22.10
2018,08,05,12,44,22.30
2018,08,05,12,45,22.40
2018,08,05,12,46,22.50
2018,08,05,12,47,22.50
2018,08,05,12,48,22.70
2018,08,05,12,49,22.60
2018,08,05,12,50,22.60
2018,08,05,12,51,22.60
2018,08,05,12,52,22.60
2018,08,05,12,53,22.60
2018,08,05,12,54,22.50
2018,08,05,12,55,22.50
2018,08,05,12,56,22.50
2018,08,05,12,57,22.40
2018,08,05,12,58,22.40
2018,08,05,12,59,22.20
2018,08,05,13,00,22.20
2018,08,05,13,01,22.30
2018,08,05,13,02,22.40
2018,08,05,13,03,22.40
2018,08,05,13,04,22.30
2018,08,05,13,05,22.40
2018,08,05,13,06,22.60
2018,08,05,13,07,22.70
2018,08,05,13,08,22.70
2018,08,05,13,09,22.50
2018,08,05,13,10,22.50
2018,08,05,13,11,22.60
2018,08,05,13,12,22.60
2018,08,05,13,13,22.60
2018,08,05,13,14,22.50
2018,08,05,13,15,22.30
2018,08,05,13,16,22.30
2018,08,05,13,17,22.30
2018,08,05,13,18,22.40
2018,08,05,13,19,22.60
2018,08,05,13,20,22.70
2018,08,05,13,21,22.60
2018,08,05,13,22,22.70
2018,08,05,13,23,22.80
2018,08,05,13,24,23.00
2018,08,05,13,25,23.10
2018,08,05,13,26,23.20
2018,08,05,13,27,23.10
2018,08,05,13,28,23.10
2018,08,05,13,29,23.10
2018,08,05,13,30,23.20
2018,08,05,13,31,23.30
2018,08,05,13,32,23.40
2018,08,05,13,33,23.60
2018,08,05,13,34,23.80
2018,08,05,13,35,23.90
2018,08,05,13,36,24.00
2018,08,05,13,37,24.10
2018,08,05,13,38,24.20
2018,08,05,13,39,24.10
2018,08,05,13,40,23.90
2018,08,05,13,41,23.60
2018,08,05,13,42,23.40
2018,08,05,13,43,23.20
2018,08,05,13,44,23.10
2018,08,05,13,45,23.10
2018,08,05,13,46,23.20
2018,08,05,13,47,23.20
2018,08,05,13,48,23.30
2018,08,05,13,49,23.40
2018,08,05,13,50,23.50
2018,08,05,13,51,23.60
2018,08,05,13,52,23.50
2018,08,05,13,53,23.30
2018,08,05,13,54,23.00
2018,08,05,13,55,22.90
2018,08,05,13,56,22.80
2018,08,05,13,57,22.70
2018,08,05,13,58,22.70
2018,08,05,13,59,22.70
2018,08,05,14,00,22.70
2018,08,05,14,01,22.70
2018,08,05,14,02,22.90
2018,08,05,14,03,23.10
2018,08,05,14,04,23.30
2018,08,05,14,05,23.50
2018,08,05,14,06,23.60
2018,08,05,14,07,23.60
2018,08,05,14,08,23.40
2018,08,05,14,09,23.40
2018,08,05,14,10,23.50
2018,08,05,14,11,23.50
2018,08,05,14,12,23.60
2018,08,05,14,13,23.70
2018,08,05,14,14,23.80
2018,08,05,14,15,23.80
2018,08,05,14,16,23.90
2018,08,05,14,17,24.10
2018,08,05,14,18,24.20
2018,08,05,14,19,24.10
2018,08,05,14,20,24.10
2018,08,05,14,21,24.20
2018,08,05,14,22,24.10
2018,08,05,14,23,24.00
2018,08,05,14,24,23.80
2018,08,05,14,25,23.60
2018,08,05,14,26,23.50
2018,08,05,14,27,23.50
2018,08,05,14,28,23.50
2018,08,05,14,29,23.40
2018,08,05,14,30,23.40
2018,08,05,14,31,23.50
2018,08,05,14,32,23.50
2018,08,05,14,33,23.70
2018,08,05,14,34,23.90
2018,08,05,14,35,24.10
2018,08,05,14,36,24.20
2018,08,05,14,37,24.20
2018,08,05,14,38,24.40
2018,08,05,14,39,24.50
2018,08,05,14,40,24.50
2018,08,05,14,41,24.70
2018,08,05,14,42,24.80
2018,08,05,14,43,24.90
2018,08,05,14,44,25.00
2018,08,05,14,45,25.20
2018,08,05,14,46,25.30
2018,08,05,14,47,25.40
2018,08,05,14,48,25.60
2018,08,05,14,49,25.70
2018,08,05,14,50,25.60
2018,08,05,14,51,25.50
2018,08,05,14,52,25.30
2018,08,05,14,53,25.20
2018,08,05,14,54,25.20
2018,08,05,14,55,25.00
2018,08,05,14,56,24.90
2018,08,05,14,57,24.90
2018,08,05,14,58,25.00
2018,08,05,14,59,25.10
2018,08,05,15,00,25.10
2018,08,05,15,01,25.10
2018,08,05,15,02,25.20
2018,08,05,15,03,25.20
2018,08,05,15,04,25.10
2018,08,05,15,05,24.90
2018,08,05,15,06,24.80
2018,08,05,15,07,24.90
2018,08,05,15,08,24.90
2018,08,05,15,09,24.90
2018,08,05,15,10,24.80
2018,08,05,15,11,24.70
2018,08,05,15,12,24.80
2018,08,05,15,13,25.00
2018,08,05,15,14,25.20
2018,08,05,15,15,25.40
2018,08,05,15,16,25.60
2018,08,05,15,17,25.70
2018,08,05,15,18,25.70
2018,08,05,15,19,25.70
2018,08,05,15,20,25.60
2018,08,05,15,21,25.60
2018,08,05,15,22,25.70
2018,08,05,15,23,25.80
2018,08,05,15,24,25.80
2018,08,05,15,25,25.80
2018,08,05,15,26,25.80
2018,08,05,15,27,25.70
2018,08,05,15,28,25.40
2018,08,05,15,29,25.30
2018,08,05,15,30,25.30
2018,08,05,15,31,25.30
2018,08,05,15,32,25.40
2018,08,05,15,33,25.60
2018,08,05,15,34,25.80
2018,08,05,15,35,25.90
2018,08,05,15,36,25.90
2018,08,05,15,37,26.10
2018,08,05,15,38,26.20
2018,08,05,15,39,26.30
2018,08,05,15,40,26.30
2018,08,05,15,41,26.30
2018,08,05,15,42,26.20
2018,08,05,15,43,26.10
2018,08,05,15,44,25.90
2018,08,05,15,45,25.80
2018,08,05,15,46,25.80
2018,08,05,15,47,25.90
2018,08,05,15,48,26.00
2018,08,05,15,49,26.00
2018,08,05,15,50,26.00
2018,08,05,15,51,26.10
2018,08,05,15,52,26.20
2018,08,05,15,53,26.30
2018,08,05,15,54,26.50
2018,08,05,15,55,26.40
2018,08,05,15,56,26.40
2018,08,05,15,57,26.40
2018,08,05,15,58,26.40
2018,08,05,15,59,26.60
2018,08,05,16,00,26.60
2018,08,05,16,01,26.50
2018,08,05,16,02,26.40
2018,08,05,16,03,26.40
2018,08,05,16,04,26.50
2018,08,05,16,05,26.60
2018,08,05,16,06,26.80
2018,08,05,16,07,26.90
2018,08,05,16,08,26.80
2018,08,05,16,09,26.80
2018,08,05,16,10,26.70
2018,08,05,16,11,26.60
2018,08,05,16,12,26.60
2018,08,05,16,13,26.70
2018,08,05,16,14,26.70
2018,08,05,16,15,26.80
2018,08,05,16,16,26.90
2018,08,05,16,17,26.90
2018,08,05,16,18,27.10
2018,08,05,16,19,27.20
2018,08,05,16,20,27.40
2018,08,05,16,21,27.50
2018,08,05,16,22,27.70
2018,08,05,16,23,27.80
2018,08,05,16,24,27.80
2018,08,05,16,25,27.80
2018,08,05,16,26,28.00
2018,08,05,16,27,28.00
2018,08,05,16,28,27.90
2018,08,05,16,29,27.90
2018,08,05,16,30,27.80
2018,08,05,16,31,27.70
2018,08,05,16,32,27.40
2018,08,05,16,33,27.30
2018,08,05,16,34,27.10
2018,08,05,16,35,27.00
2018,08,05,16,36,26.90
2018,08,05,16,37,26.90
2018,08,05,16,38,26.90
2018,08,05,16,39,26.80
2018,08,05,16,40,26.80
2018,08,05,16,41,26.80
2018,08,05,16,42,26.80
2018,08,05,16,43,26.70
2018,08,05,16,44,26.60
2018,08,05,16,45,26.70
2018,08,05,16,46,26.70
2018,08,05,16,47,26.80
2018,08,05,16,48,26.80
2018,08,05,16,49,26.80
2018,08,05,16,50,26.80
2018,08,05,16,51,26.90
2018,08,05,16,52,26.90
2018,08,05,16,53,27.00
2018,08,05,16,54,27.00
2018,08,05,16,55,27.10
2018,08,05,16,56,27.20
2018,08,05,16,57,27.30
2018,08,05,16,58,27.30
2018,08,05,16,59,27.20
2018,08,05,17,00,27.30
2018,08,05,17,01,27.30
2018,08,05,17,02,27.30
2018,08,05,17,03,27.30
2018,08,05,17,04,27.30
2018,08,05,17,05,27.10
2018,08,05,17,06,27.10
2018,08,05,17,07,27.20
2018,08,05,17,08,27.30
2018,08,05,17,09,27.40
2018,08,05,17,10,27.50
2018,08,05,17,11,27.60
2018,08,05,17,12,27.80
2018,08,05,17,13,27.90
2018,08,05,17,14,27.90
2018,08,05,17,15,28.00
2018,08,05,17,16,28.00
2018,08,05,17,17,28.00
2018,08,05,17,18,27.90
2018,08,05,17,19,27.80